Home   Weather   Bad Ems   Past weeks
Flag for Germany

Past Weather in Bad Ems, Rhineland-Palatinate, Germany — Yesterday and Last 2 Weeks

Now
36 °F

Passing clouds.


Feels Like: 28 °F
Forecast: 46 / 29 °F
Wind: 10 mph from North

Location: Siegerland Airport

Current Time: Mar 30, 2020 at 1:19:53 pm

Latest Report: Mar 30, 2020 at 12:50 pm


Visibility: N/A

Pressure: 30.30 "Hg

Humidity: 35%

Dew Point: 10 °F

Location of Bad EmsLocation

Past Weather in Bad Ems — Graph

°F

Bad Ems Temperature Yesterday

Maximum temperature yesterday: 37 °F (at 3:20 pm)
Minimum temperature yesterday: 32 °F (at 8:20 am)
Average temperature yesterday: 34 °F

High & Low Weather Summary for the Past Weeks

 TemperatureHumidityPressure
High59 °F (Mar 16, 3:20 pm)100% (Mar 17, 7:50 am)30.48 "Hg (Mar 17, 7:50 am)
Low25 °F (Mar 30, 8:20 am)20% (Mar 25, 12:50 pm)29.92 "Hg (Mar 15, 4:50 pm)
Average43 °F54%30.22 "Hg
* Reported Mar 15 11:20 am — Mar 30 12:20 pm, Bad Ems. Weather by CustomWeather, © 2020

Note: Actual official high and low records may vary slightly from our data, if they occured in-between our weather recording intervals... More about our weather records

Bad Ems Weather History for the Previous 24 Hours

Scroll right to see more
 ConditionsComfort  
Time TempWeatherWind HumidityBarometerVisibility
12:20 pm
Mon, Mar 30
34 °FPassing clouds.8 mph35%30.30 "HgN/A
11:50 am32 °FSunny.3 mph34%30.30 "Hg10 mi
11:20 am32 °FPassing clouds.7 mph37%30.33 "HgN/A
10:50 am30 °FPassing clouds.7 mph37%30.33 "HgN/A
10:20 am28 °FPassing clouds.8 mph40%30.36 "HgN/A
9:50 am28 °FPassing clouds.8 mph47%30.36 "HgN/A
9:20 am27 °FPassing clouds.8 mph54%30.33 "HgN/A
8:50 am27 °FSunny.7 mph50%30.33 "Hg10 mi
8:20 am25 °FPassing clouds.6 mph63%30.33 "HgN/A
7:50 pm
Sun, Mar 29
32 °FPartly sunny.14 mph80%30.27 "HgN/A
7:20 pm32 °FPartly sunny.14 mph80%30.27 "HgN/A
6:50 pm32 °FPartly sunny.14 mph87%30.27 "HgN/A
6:20 pm32 °FSnow flurries. Partly sunny.15 mph87%30.24 "Hg5 mi
5:50 pm34 °FSnow flurries. Partly sunny.12 mph75%30.24 "Hg5 mi
5:20 pm34 °FSnow flurries. Broken clouds.13 mph81%30.21 "Hg5 mi
4:50 pm36 °FPartly sunny.15 mph70%30.21 "HgN/A
4:20 pm37 °FBroken clouds.16 mph56%30.18 "HgN/A
3:50 pm36 °FBroken clouds.14 mph65%30.21 "HgN/A
3:20 pm37 °FBroken clouds.14 mph56%30.18 "HgN/A
2:50 pm36 °FBroken clouds.17 mph60%30.18 "HgN/A
2:20 pm36 °FBroken clouds.17 mph60%30.18 "HgN/A
1:50 pm36 °FBroken clouds.17 mph60%30.18 "HgN/A
1:20 pm36 °FBroken clouds.18 mph60%30.18 "HgN/A
Weather by CustomWeather, © 2020

See weather overview

Advertising